User: anonymous   Login
Location: Kuffner-Sternwarte
(48.2130°N, 16.2960°E)
Time: 02:29:28
(UTC+02:00)
Language:

MOZHAYETS 4 - Orbit

View from above orbital plane
View from above orbital plane
View from above satellite
View from above satellite

Ground track
Ground track

The orbit data is extracted from the following two-line orbital elements,

1 27939U 03042A   19166.77368647  .00000095  00000-0  25603-4 0  9994
2 27939  98.0395 302.6472 0014341  78.5546 281.7273 14.66784863840115
Epoch (UTC): 15 June 2019 18:34:06
Eccentricity: 0.0014341
inclination: 98.0395°
perigee height: 661 km
apogee height: 681 km
right ascension of ascending node: 302.6472°
argument of perigee: 78.5546°
revolutions per day: 14.66784863
mean anomaly at epoch: 281.7273°
orbit number at epoch: 84011

The dashed part of the orbit path shows where the satellite is in the earth's shadow,  

DLR